Hourly Weather Roundup
Issued by NWS Central Illinois

Home | Current Version | Previous Version | Text Only | Print | Product List | Glossary On
Versions: 1 2 3 4 5 6 7 8 9 10 11 12 13 14 15 16 17 18 19 20 21 22 23 24 25 26 27 28 29 30 31 32 33 34 35 36 37 38 39 40 41 42 43 44 45 46 47 48 49 50
000
NZUS43 KILX 231510
HWRILX

AREA WEATHER ROUNDUP
NATIONAL WEATHER SERVICE, LINCOLN IL
1000 AM CDT THU OCT 23 2014


CITY           SKY/WX    TMP DP  RH WIND       PRES   REMARKS
BLOOMINGTON    PTSUNNY   49  44  83 S10       30.22F
CHAMPAIGN      MOSUNNY   51  44  77 S9        30.24S
DECATUR        MOSUNNY   51  44  77 S6        30.24S
FLORA          SUNNY     51  44  77 S8        30.26S
GALESBURG      CLOUDY    51  43  73 SE8       30.16S
JACKSONVILLE   CLOUDY    51  43  75 S7        30.19S
LACON          MOSUNNY   50  41  71 S6        30.19S
LAWRENCEVILLE  SUNNY     51  44  77 S7        30.26S
LITCHFIELD     CLOUDY    48  43  82 S9        30.23S
$$


CITY           SKY/WX    TMP DP  RH WIND       PRES   REMARKS
LINCOLN        CLOUDY    50  43  75 S8        30.21S
MACOMB         CLOUDY    49  44  80 S14       30.17F
MATTOON        MOSUNNY   49  42  77 S9        30.23F
MT CARMEL AP   SUNNY     52  45  76 E5        30.26R
OLNEY-NOBLE AP SUNNY     50  43  76 S3        30.27R
PARIS          SUNNY     51  45  81 S7        30.26S
PEORIA         CLOUDY    51  41  68 S8        30.20S
PONTIAC        SUNNY     51  44  77 S8        30.23S
RANTOUL        SUNNY     53  45  75 S10       30.23F
ROBINSON       SUNNY     52  47  82 SE5       30.26F
SPRINGFIELD    CLOUDY    51  42  71 S9        30.22S
TAYLORVILLE    CLOUDY    46  43  87 SE7       30.22F
$$

...REGIONAL REPORTS...


CITY           SKY/WX    TMP DP  RH WIND       PRES   REMARKS
CHICAGO O`HARE PTSUNNY   49  41  74 S10       30.21F
KANKAKEE       SUNNY     50  44  80 S9        30.24S
MOLINE         CLOUDY    51  42  71 S9        30.13S
MOUNT VERNON   MOSUNNY   52  45  76 SW6       30.26R
PITTSFIELD     CLOUDY    49  43  80 S6        30.18S
QUINCY         CLOUDY    51  42  71 S10       30.15R
ROCKFORD       CLOUDY    49  41  74 S9        30.21S
$$


CITY           SKY/WX    TMP DP  RH WIND       PRES   REMARKS
BURLINGTON     CLOUDY    52  44  74 S13       30.12F
CEDAR RAPIDS   CLOUDY    47  44  90 S10       30.08S
DES MOINES     PTSUNNY   56  53  90 SW8       30.05S
KIRKSVILLE     CLOUDY    55  49  80 S8        30.13R
OTTUMWA        PTSUNNY   54  46  74 S7        30.07S
ST LOUIS       PTSUNNY   55  43  63 S8        30.22R
$$


CITY           SKY/WX    TMP DP  RH WIND       PRES   REMARKS
TERRE HAUTE    SUNNY     50  43  77 S9        30.27R
EVANSVILLE     SUNNY     50  43  77 SE6       30.26S
INDIANAPOLIS   MOSUNNY   48  42  80 SW5       30.25S
LAFAYETTE      MOSUNNY   48  43  82 VRB6      30.25F
MADISON        CLOUDY    48  39  71 S9        30.15S
MILWAUKEE      PTSUNNY   50  40  68 S13       30.19F
$$





USA.gov is the U.S. government's official web portal to all federal, state and local government web resources and services.